Weather History for Howell, MI

Change the Weather History Date:

Friday, September 12, 2014

  Actual Average Record
Temperature  
Mean Temperature 51 °F -  
Max Temperature 54 °F 75 °F 89 °F (1999)
Min Temperature 48 °F 53 °F 44 °F (2007)
Degree Days  
Heating Degree Days 14    
Growing Degree Days 1 (Base 50)    
Moisture  
Dew Point 49 °F    
Average Humidity 91    
Maximum Humidity 97    
Minimum Humidity 76    
Precipitation  
Precipitation 0.00 in - - ()
Sea Level Pressure  
Sea Level Pressure 30.25 in    
Wind  
Wind Speed 3 mph (North)    
Max Wind Speed 9 mph    
Max Gust Speed -    
Visibility 10 miles    
Events      
Averages and records for this station are not official NWS values.
T = Trace of Precipitation, MM = Missing Value Source: NWS Daily Summary

Daily Weather History Graph

Daily Weather History Graph

Search for Another Location

Airport:

Trip Planner

Search our weather history database for the weather conditions in past years. The results will help you decide how hot, cold, wet, or windy it might be!

Date:

Astronomy

Sep. 12, 2014 Rise Set
Actual Time 7:12 AM EDT 7:51 PM EDT
Civil Twilight 6:44 AM EDT 8:19 PM EDT
Nautical Twilight 6:10 AM EDT 8:52 PM EDT
Astronomical Twilight 5:35 AM EDT 9:27 PM EDT
Moon 10:04 PM EDT (9/12) 11:20 AM EDT (9/12)
Length of Visible Light 13h 35m
Length of Day
12h 38m
Waning Gibbous, 83% of the Moon is Illuminated
Sep 12
Waning Gibbous
Sep 15
Last Quarter
Sep 24
New
Oct 1
First Quarter
Oct 8
Full

Hourly Weather History & Observations

Time (EDT) Temp. Dew Point Humidity Pressure Visibility Wind Dir Wind Speed Gust Speed Precip Events Conditions
12:15 AM 50.4 °F 48.6 °F 94% 30.23 in 10.0 mi Calm Calm - N/A   Overcast
12:35 AM 50.0 °F 48.4 °F 94% 30.23 in 7.0 mi Calm Calm - N/A   Overcast
12:55 AM 50.0 °F 48.6 °F 95% 30.23 in 10.0 mi North 3.5 mph - N/A   Overcast
1:15 AM 50.0 °F 48.6 °F 95% 30.23 in 10.0 mi Calm Calm - N/A   Overcast
1:35 AM 50.2 °F 48.7 °F 95% 30.23 in 10.0 mi NNW 3.5 mph - N/A   Overcast
1:55 AM 50.4 °F 49.1 °F 95% 30.23 in 10.0 mi Calm Calm - N/A   Overcast
2:15 AM 49.6 °F 48.2 °F 95% 30.24 in 10.0 mi NE 5.8 mph - N/A   Overcast
2:35 AM 49.3 °F 47.8 °F 95% 30.24 in 10.0 mi NE 4.6 mph - N/A   Overcast
2:55 AM 49.1 °F 47.7 °F 95% 30.24 in 10.0 mi NE 3.5 mph - N/A   Overcast
3:15 AM 49.1 °F 47.7 °F 95% 30.25 in 10.0 mi Calm Calm - N/A   Overcast
3:35 AM 49.1 °F 47.7 °F 95% 30.25 in 10.0 mi Calm Calm - N/A   Overcast
3:54 AM 49.1 °F 47.7 °F 95% 30.25 in 10.0 mi North 3.5 mph - N/A   Overcast
4:15 AM 48.7 °F 47.5 °F 95% 30.24 in 10.0 mi North 4.6 mph - N/A   Overcast
4:35 AM 48.6 °F 47.5 °F 96% 30.25 in 10.0 mi North 3.5 mph - N/A   Overcast
5:15 AM 48.6 °F 47.3 °F 95% 30.25 in 10.0 mi Calm Calm - N/A   Overcast
5:35 AM 48.6 °F 47.3 °F 95% 30.25 in 10.0 mi Calm Calm - N/A   Overcast
5:54 AM 48.7 °F 47.7 °F 96% 30.26 in 10.0 mi NNW 3.5 mph - N/A   Overcast
6:15 AM 48.9 °F 47.5 °F 95% 30.27 in 10.0 mi NNW 4.6 mph - N/A   Overcast
6:35 AM 48.9 °F 47.5 °F 95% 30.27 in 10.0 mi NNW 4.6 mph - N/A   Overcast
6:54 AM 48.6 °F 47.3 °F 95% 30.27 in 10.0 mi North 3.5 mph - N/A   Overcast
7:15 AM 48.7 °F 47.5 °F 95% 30.27 in 10.0 mi Calm Calm - N/A   Overcast
7:35 AM 48.7 °F 47.7 °F 96% 30.28 in 10.0 mi North 3.5 mph - N/A   Overcast
7:54 AM 49.1 °F 47.7 °F 95% 30.28 in 10.0 mi Calm Calm - N/A   Overcast
8:15 AM 48.9 °F 47.5 °F 95% 30.28 in 10.0 mi NNW 4.6 mph - N/A   Overcast
8:34 AM 49.3 °F 47.7 °F 94% 30.28 in 10.0 mi North 4.6 mph - N/A   Overcast
8:55 AM 49.8 °F 47.7 °F 92% 30.28 in 10.0 mi NNW 9.2 mph - N/A   Overcast
9:15 AM 49.6 °F 47.1 °F 91% 30.29 in 10.0 mi North 4.6 mph - N/A   Overcast
9:34 AM 49.3 °F 47.1 °F 92% 30.28 in 10.0 mi Calm Calm - N/A   Overcast
9:55 AM 50.0 °F 47.3 °F 90% 30.28 in 10.0 mi North 6.9 mph - N/A   Mostly Cloudy
10:15 AM 50.2 °F 47.3 °F 90% 30.28 in 10.0 mi NNE 4.6 mph - N/A   Mostly Cloudy
10:34 AM 50.7 °F 47.5 °F 89% 30.30 in 10.0 mi North 3.5 mph - N/A   Overcast
10:55 AM 51.1 °F 47.5 °F 87% 30.30 in 10.0 mi NNE 5.8 mph - N/A   Overcast
11:15 AM 52.3 °F 48.4 °F 86% 30.31 in 10.0 mi NNW 6.9 mph - N/A   Overcast
11:34 AM 51.8 °F 47.1 °F 84% 30.31 in 10.0 mi North 5.8 mph - N/A   Overcast
11:55 AM 50.7 °F 46.8 °F 86% 30.31 in 10.0 mi NNW 5.8 mph - N/A   Overcast
12:15 PM 52.0 °F 47.7 °F 85% 30.29 in 10.0 mi NNW 8.1 mph - N/A   Overcast
12:34 PM 51.3 °F 46.8 °F 85% 30.29 in 10.0 mi North 4.6 mph - N/A   Overcast
12:55 PM 52.7 °F 47.3 °F 82% 30.29 in 10.0 mi NW 3.5 mph - N/A   Overcast
1:15 PM 53.2 °F 46.0 °F 77% 30.29 in 10.0 mi Calm Calm - N/A   Overcast
1:34 PM 54.0 °F 46.9 °F 77% 30.29 in 10.0 mi Calm Calm - N/A   Overcast
1:55 PM 54.0 °F 46.6 °F 76% 30.28 in 10.0 mi Calm Calm - N/A   Overcast
2:15 PM 54.5 °F 47.3 °F 77% 30.28 in 10.0 mi NW 5.8 mph - N/A   Overcast
2:35 PM 52.9 °F 48.4 °F 85% 30.27 in 10.0 mi NNW 6.9 mph - N/A   Overcast
2:55 PM 52.3 °F 48.4 °F 86% 30.26 in 7.0 mi North 4.6 mph - N/A   Overcast
3:15 PM 52.7 °F 48.7 °F 86% 30.26 in 10.0 mi NW 5.8 mph - N/A   Overcast
3:35 PM 53.6 °F 48.7 °F 84% 30.25 in 10.0 mi North 4.6 mph - N/A   Overcast
3:55 PM 53.8 °F 48.4 °F 82% 30.25 in 10.0 mi NNW 4.6 mph - N/A   Overcast
4:14 PM 54.1 °F 48.0 °F 80% 30.24 in 10.0 mi North 3.5 mph - N/A   Overcast
4:35 PM 54.5 °F 48.6 °F 80% 30.23 in 10.0 mi NE 4.6 mph - N/A   Overcast
4:55 PM 54.0 °F 48.6 °F 82% 30.23 in 10.0 mi North 3.5 mph - N/A   Overcast
5:14 PM 53.6 °F 49.3 °F 85% 30.23 in 10.0 mi North 3.5 mph - N/A   Overcast
5:35 PM 53.2 °F 49.1 °F 86% 30.23 in 10.0 mi Calm Calm - N/A   Overcast
5:55 PM 53.6 °F 49.5 °F 86% 30.23 in 10.0 mi NNW 3.5 mph - N/A   Overcast
6:14 PM 53.6 °F 49.6 °F 86% 30.23 in 10.0 mi Calm Calm - N/A   Overcast
6:35 PM 53.2 °F 50.0 °F 89% 30.22 in 10.0 mi Calm Calm - N/A   Overcast
6:55 PM 53.6 °F 50.0 °F 88% 30.22 in 10.0 mi NNE 3.5 mph - N/A   Overcast
7:14 PM 52.9 °F 50.4 °F 91% 30.23 in 10.0 mi North 5.8 mph - N/A   Overcast
7:35 PM 52.0 °F 50.2 °F 94% 30.21 in 10.0 mi NNE 3.5 mph - N/A   Overcast
7:55 PM 51.8 °F 50.2 °F 94% 30.21 in 10.0 mi NNW 3.5 mph - N/A   Overcast
8:14 PM 51.8 °F 50.4 °F 95% 30.21 in 10.0 mi Calm Calm - N/A   Overcast
8:35 PM 51.4 °F 50.4 °F 96% 30.20 in 10.0 mi Calm Calm - N/A   Overcast
8:55 PM 51.4 °F 50.5 °F 97% 30.20 in 10.0 mi NE 3.5 mph - N/A   Overcast
9:14 PM 51.4 °F 50.5 °F 97% 30.20 in 10.0 mi NE 3.5 mph - N/A   Overcast
9:35 PM 52.3 °F 51.4 °F 97% 30.20 in 10.0 mi Calm Calm - N/A   Overcast
9:55 PM 51.8 °F 50.9 °F 97% 30.20 in 10.0 mi Calm Calm - N/A   Overcast
10:15 PM 52.0 °F 51.1 °F 97% 30.20 in 10.0 mi Calm Calm - N/A   Overcast
10:35 PM 51.8 °F 50.9 °F 97% 30.18 in 10.0 mi Calm Calm - N/A   Overcast
10:55 PM 52.0 °F 51.3 °F 97% 30.17 in 10.0 mi Calm Calm - N/A   Overcast
11:15 PM 51.8 °F 50.9 °F 97% 30.17 in 7.0 mi Calm Calm - N/A   Overcast
11:35 PM 52.9 °F 52.2 °F 97% 30.17 in 7.0 mi Calm Calm - N/A   Overcast
11:55 PM 53.1 °F 52.0 °F 96% 30.17 in 7.0 mi WNW 3.5 mph - N/A   Overcast